Wind_Speed
36 35 36 36 36 36 39 40 43 41 40 37 38 39 38 38 39 40 40 40 41 41 42 42 43 44 44 45 46 47 48 47 47 47 48 49 50 51 52 53 53 52 51 50
38 37 38 39 37 37 39 40 42 43 41 38 40 41 40 40 40 40 40 40 40 41 41 42 42 43 44 44 45 47 48 48 48 49 49 49 50 50 50 51 52 52 51 50
40 38 40 40 36 37 39 39 41 42 40 39 40 41 42 41 41 41 41 41 41 41 41 42 42 42 43 43 44 45 47 48 48 49 50 50 49 49 48 49 51 52 51 50
41 41 42 38 37 38 39 39 40 41 40 40 41 41 42 42 42 42 43 43 43 43 43 42 43 43 43 43 44 45 46 48 49 49 50 49 48 47 47 48 49 50 50 49
41 42 43 39 37 38 40 39 38 40 40 41 41 42 42 42 42 42 42 42 42 43 43 42 42 43 43 43 44 45 45 46 47 48 47 47 47 47 47 47 47 48 48 47
41 43 43 39 38 39 41 39 37 39 40 40 41 41 39 40 41 41 41 41 41 42 42 42 42 42 43 44 44 43 43 44 45 45 43 43 44 45 46 46 45 45 46 46
40 42 42 38 39 40 40 39 39 40 40 40 41 40 39 39 39 40 41 41 42 43 43 42 42 42 42 42 43 42 41 42 42 42 42 41 41 42 42 42 43 43 44 43
41 43 41 39 40 39 39 39 39 40 40 40 40 39 39 39 40 40 41 42 43 43 43 42 41 41 41 41 40 40 40 40 41 41 40 40 40 40 40 40 41 41 42 43
42 41 40 41 41 40 40 40 39 39 40 40 39 39 40 40 40 40 41 42 42 42 40 40 39 40 39 39 39 39 39 38 38 39 40 39 38 38 38 38 38 39 39 40
42 41 41 41 41 40 40 40 40 40 40 40 39 39 40 41 41 41 41 40 40 39 38 38 38 38 38 37 37 37 36 36 36 36 37 38 37 37 36 36 37 38 38 39
43 41 42 41 40 39 40 40 40 41 41 41 41 40 41 41 40 40 39 39 39 38 37 37 37 37 35 35 35 35 34 33 33 34 34 34 35 35 34 35 36 36 37 38
42 40 42 41 40 41 40 40 41 41 41 41 41 41 41 41 40 39 38 38 38 37 36 36 35 34 34 33 33 33 33 33 32 32 33 33 33 33 33 34 35 35 36 37
40 41 42 41 40 40 40 41 41 41 41 41 40 40 40 39 39 38 37 37 36 36 35 34 33 32 32 32 32 32 32 32 31 31 30 31 32 32 32 33 34 34 35 36
39 40 40 39 39 40 41 41 41 40 39 39 38 38 38 38 37 37 36 36 35 35 34 33 32 31 31 30 30 30 30 31 31 31 30 30 31 31 32 31 32 33 33 34
37 38 39 38 39 39 39 39 39 38 37 36 36 36 37 36 36 34 34 33 33 33 32 32 31 31 30 29 29 29 30 31 31 30 30 30 30 31 31 30 30 31 32 32
36 37 37 36 36 36 37 37 36 36 36 35 35 35 35 34 33 32 32 32 31 31 31 31 31 30 29 29 29 29 29 30 30 29 29 29 29 30 30 30 30 31 30 30
33 33 34 34 34 35 34 34 34 34 34 33 33 32 32 31 30 30 30 30 30 29 29 29 29 29 29 29 29 29 29 28 29 28 28 29 29 29 29 29 29 28 28 28
31 31 31 32 32 32 32 33 32 32 31 31 31 30 29 29 29 29 28 28 28 28 28 28 28 28 29 29 28 28 27 27 27 27 28 28 27 27 27 27 27 27 26 26
29 30 30 30 30 31 31 31 30 30 30 29 29 29 28 28 28 28 28 28 27 27 27 27 27 27 27 27 27 26 26 26 26 26 26 26 26 25 25 25 25 25 25 25
28 29 29 29 30 30 29 29 29 29 28 28 28 27 27 27 27 27 27 26 26 26 26 25 25 25 26 26 25 25 25 25 25 24 24 24 24 23 23 23 23 23 23 23
28 28 28 28 28 28 28 28 28 28 28 27 27 26 25 25 25 25 25 25 25 25 24 24 24 24 24 24 24 24 24 24 23 23 22 21 21 22 22 22 22 22 22 22
28 28 28 27 27 26 27 27 27 26 26 25 24 24 24 24 24 24 24 24 24 24 24 23 23 23 23 23 22 22 22 22 22 22 21 20 20 20 20 20 21 21 21 21
26 26 26 26 26 26 26 26 25 24 24 23 23 23 23 23 24 23 23 23 23 24 23 23 22 22 22 22 21 20 20 20 20 20 19 20 20 20 19 19 19 19 19 20
25 25 25 25 25 24 24 24 23 23 23 22 22 23 23 23 22 22 22 22 22 22 22 21 22 21 21 22 21 20 20 19 19 19 19 19 19 19 19 18 18 19 19 19
24 24 23 23 22 22 22 22 22 22 22 22 22 23 23 22 22 22 21 21 21 21 20 20 20 20 21 21 20 20 20 19 19 19 19 19 19 18 18 18 18 18 19 19
23 23 22 22 21 21 21 21 22 22 22 23 23 23 22 21 21 21 20 20 20 19 19 19 19 19 18 18 18 18 17 17 17 16 16 16 16 16 16 17 17 18 18 18
23 22 23 22 22 21 21 21 21 22 22 22 22 22 21 20 20 20 19 19 18 18 17 17 17 16 16 16 16 16 15 15 15 15 14 14 14 15 15 15 16 16 16 16
Wind_Direction
272 273 272 273 273 274 274 276 278 280 281 282 280 278 278 278 278 277 277 278 278 278 277 276 275 272 270 268 267 266 264 263 263 263 263 263 263 262 261 260 259 259 260 260
273 273 273 273 275 277 277 277 278 280 280 281 279 278 278 278 279 279 278 279 279 279 278 277 276 274 272 270 269 267 266 265 264 264 264 265 263 262 261 260 259 259 260 261
274 273 272 275 278 278 278 278 279 279 280 279 279 279 279 279 278 278 279 280 279 279 279 278 276 275 273 271 270 269 267 266 265 265 265 265 264 262 262 260 259 260 260 261
274 273 273 277 278 279 278 278 279 279 279 278 280 280 280 281 280 279 278 279 280 280 280 280 278 277 275 273 272 271 269 267 266 266 265 265 265 262 261 261 260 259 259 260
276 276 277 278 282 281 280 279 280 280 279 279 279 280 281 281 281 281 280 279 280 281 281 281 279 278 277 276 275 273 271 269 267 267 266 265 264 263 262 262 261 260 258 258
276 277 279 282 283 282 282 283 282 280 280 280 280 280 280 279 280 280 281 281 280 281 281 281 279 278 277 277 275 274 272 271 268 267 266 264 264 262 262 262 262 261 260 259
275 277 280 283 283 283 284 286 284 283 282 281 280 280 280 279 280 281 281 281 281 281 281 281 279 278 278 278 276 274 272 271 269 267 265 265 266 265 263 263 262 261 261 261
274 276 281 283 282 282 284 283 284 284 283 283 281 280 280 281 281 283 283 283 283 282 282 281 279 278 278 278 277 274 273 272 270 268 267 266 266 266 264 263 263 262 262 262
274 277 280 281 281 282 282 283 283 283 283 283 283 283 282 283 284 284 286 286 286 285 283 281 280 279 278 278 278 276 274 272 269 267 266 265 265 265 264 263 263 262 262 262
275 277 278 278 279 279 279 280 282 283 284 284 284 284 284 284 285 285 286 285 285 285 283 282 281 280 279 278 277 277 275 272 269 268 265 263 263 263 264 263 263 263 262 261
276 278 277 277 277 277 278 279 281 283 284 284 283 284 284 285 286 286 284 283 284 283 283 283 282 280 279 278 277 276 275 273 270 267 265 264 263 263 264 264 264 264 264 263
276 276 276 276 276 276 278 280 281 282 283 284 283 284 284 285 285 284 282 282 282 282 283 283 283 281 279 278 277 276 274 273 271 269 266 265 264 264 264 266 266 266 266 266
276 276 275 276 276 277 278 280 282 283 283 283 283 283 284 284 283 282 281 281 282 282 282 282 281 280 279 278 277 276 275 273 273 270 267 267 265 264 266 267 266 266 266 267
275 276 276 277 277 277 279 282 283 284 283 282 282 282 282 283 283 282 280 280 280 280 281 280 280 279 278 278 277 277 276 274 273 271 270 269 268 267 268 267 266 267 267 268
273 275 276 277 278 280 281 282 283 283 283 282 282 282 281 282 283 282 281 280 280 279 278 278 278 277 277 277 277 276 276 275 273 272 272 271 269 269 269 268 267 266 267 268
274 275 276 278 279 280 281 282 282 282 282 282 282 283 283 283 282 282 281 280 280 280 279 279 277 276 277 277 277 276 276 275 273 272 272 271 270 269 268 268 268 266 264 265
275 276 277 277 279 281 282 283 283 282 281 282 282 282 282 282 282 282 281 281 281 281 281 280 278 276 277 278 278 276 274 273 272 273 272 271 270 269 268 267 266 265 264 263
276 277 277 278 279 281 282 283 284 283 282 282 282 282 281 281 283 282 282 282 282 281 280 280 279 278 276 277 277 275 275 274 273 273 273 272 271 269 268 267 265 265 266 264
276 277 278 279 280 281 283 283 284 284 283 282 280 280 280 280 281 281 282 282 282 281 280 279 279 278 276 277 277 276 276 276 275 274 274 272 271 269 268 267 265 265 264 264
277 278 279 280 281 282 283 283 285 286 284 282 280 278 279 280 281 282 283 283 283 281 280 279 278 277 277 278 278 277 276 276 276 275 273 272 271 269 267 266 265 264 263 262
278 279 281 282 282 282 283 284 285 285 284 282 280 278 279 280 283 284 285 284 284 282 281 279 278 278 279 279 278 277 276 275 275 274 272 271 271 270 267 265 264 264 262 261
279 280 281 283 283 283 283 284 285 285 284 283 281 280 280 282 284 286 286 286 285 283 281 280 279 279 280 280 278 276 275 275 275 273 271 270 270 269 267 265 264 262 261 260
281 282 282 283 283 282 282 284 285 285 284 282 281 281 283 284 285 285 286 286 286 284 282 280 279 278 278 277 276 274 274 275 276 274 270 269 268 268 267 266 263 261 261 259
281 283 283 283 283 284 284 283 284 284 283 283 282 283 285 285 284 285 286 286 287 286 283 280 278 276 275 274 273 273 274 275 275 273 270 269 267 266 265 265 265 264 263 261
281 283 284 283 282 282 282 282 283 283 283 283 283 285 285 284 283 285 287 287 288 288 285 282 279 277 276 275 274 273 272 272 273 273 271 267 264 263 264 265 266 266 264 262
281 282 282 281 281 282 281 281 282 283 284 284 285 286 285 283 284 286 287 287 288 286 284 283 281 280 278 275 274 274 273 272 273 272 270 266 264 264 265 267 268 268 265 262
279 280 280 280 280 280 280 281 283 284 285 285 285 285 283 283 285 287 287 286 286 285 284 283 283 282 279 276 273 273 274 273 273 272 268 266 266 267 267 268 269 267 263 258
Height
5608 5607 5605 5604 5604 5602 5600 5598 5595 5596 5595 5596 5592 5589 5587 5585 5583 5581 5580 5578 5576 5574 5572 5570 5568 5567 5566 5565 5564 5564 5563 5564 5564 5564 5564 5564 5564 5565 5566 5567 5568 5569 5570 5571
5597 5596 5594 5593 5594 5592 5590 5588 5585 5583 5584 5584 5579 5577 5575 5573 5571 5569 5568 5566 5564 5562 5560 5557 5555 5554 5553 5552 5551 5550 5550 5549 5549 5550 5550 5550 5550 5550 5551 5552 5553 5554 5556 5557
5585 5585 5581 5583 5585 5582 5579 5578 5575 5572 5573 5571 5568 5566 5563 5561 5559 5557 5555 5554 5552 5550 5547 5545 5542 5540 5539 5538 5537 5537 5536 5535 5535 5535 5535 5535 5535 5535 5536 5537 5538 5540 5541 5542
5572 5572 5571 5577 5574 5571 5568 5567 5564 5561 5560 5558 5556 5554 5552 5550 5547 5545 5543 5541 5539 5537 5534 5532 5530 5528 5526 5525 5523 5522 5521 5521 5520 5520 5520 5520 5520 5521 5522 5523 5524 5526 5527 5528
5560 5558 5559 5564 5563 5559 5555 5555 5554 5549 5548 5546 5544 5542 5541 5538 5535 5532 5530 5528 5526 5524 5522 5520 5517 5515 5513 5512 5511 5509 5508 5507 5506 5506 5506 5506 5507 5507 5508 5509 5510 5511 5513 5514
5550 5547 5547 5554 5551 5546 5543 5543 5542 5538 5535 5534 5532 5530 5531 5527 5524 5521 5519 5516 5514 5512 5509 5507 5505 5503 5501 5499 5498 5497 5495 5494 5493 5493 5493 5493 5494 5494 5495 5496 5497 5498 5499 5501
5539 5536 5536 5542 5538 5534 5533 5533 5529 5526 5524 5522 5520 5518 5517 5515 5513 5510 5507 5505 5502 5500 5497 5495 5493 5491 5489 5487 5485 5484 5483 5482 5481 5481 5481 5481 5482 5482 5482 5483 5485 5486 5487 5489
5528 5526 5530 5529 5525 5523 5522 5519 5516 5514 5512 5510 5508 5506 5505 5503 5501 5498 5495 5493 5490 5487 5485 5483 5480 5478 5477 5475 5473 5472 5471 5470 5470 5470 5469 5470 5470 5470 5471 5471 5473 5474 5475 5476
5518 5519 5518 5515 5512 5511 5509 5507 5505 5502 5501 5498 5496 5494 5493 5491 5489 5486 5483 5481 5478 5475 5473 5471 5468 5466 5465 5464 5462 5460 5459 5459 5459 5459 5459 5459 5459 5459 5460 5461 5461 5462 5463 5465
5505 5506 5505 5503 5501 5499 5497 5495 5492 5490 5489 5487 5484 5483 5481 5479 5477 5474 5472 5469 5466 5464 5462 5460 5457 5455 5453 5452 5450 5449 5448 5448 5448 5448 5448 5448 5448 5449 5449 5450 5451 5451 5452 5454
5492 5493 5491 5491 5489 5488 5485 5483 5481 5479 5477 5475 5473 5471 5469 5466 5464 5462 5459 5457 5455 5453 5451 5449 5447 5445 5443 5441 5440 5439 5438 5438 5437 5437 5437 5437 5438 5438 5439 5440 5440 5441 5441 5442
5480 5481 5478 5478 5477 5475 5473 5472 5470 5468 5466 5463 5461 5459 5457 5454 5452 5450 5447 5445 5443 5441 5440 5438 5436 5434 5433 5431 5430 5429 5428 5428 5428 5427 5427 5427 5428 5428 5428 5429 5430 5430 5430 5431
5468 5467 5465 5465 5464 5463 5461 5460 5458 5456 5454 5452 5450 5447 5445 5443 5440 5438 5436 5434 5432 5430 5429 5427 5426 5424 5423 5421 5420 5419 5419 5418 5418 5418 5417 5417 5418 5418 5419 5419 5419 5419 5420 5420
5455 5454 5452 5453 5452 5450 5449 5447 5445 5443 5441 5439 5437 5435 5433 5431 5429 5427 5425 5423 5421 5420 5418 5417 5415 5414 5413 5412 5411 5410 5409 5409 5408 5408 5408 5408 5408 5408 5409 5409 5409 5409 5410 5410
5444 5442 5441 5440 5440 5439 5437 5435 5433 5432 5430 5428 5426 5424 5422 5420 5418 5416 5414 5412 5411 5409 5408 5407 5406 5405 5404 5403 5402 5401 5400 5400 5399 5399 5399 5398 5399 5399 5399 5399 5399 5400 5400 5400
5432 5430 5429 5429 5428 5427 5425 5424 5422 5421 5419 5417 5415 5413 5411 5409 5407 5405 5404 5402 5401 5399 5398 5397 5396 5395 5395 5394 5393 5392 5391 5390 5390 5390 5389 5389 5389 5389 5389 5389 5390 5390 5390 5390
5421 5420 5419 5418 5418 5416 5415 5413 5411 5410 5408 5406 5404 5402 5400 5399 5397 5395 5394 5392 5391 5390 5388 5387 5386 5386 5385 5385 5384 5383 5382 5382 5381 5381 5381 5380 5380 5380 5380 5380 5380 5381 5381 5381
5410 5410 5409 5408 5407 5406 5404 5402 5401 5399 5397 5395 5394 5392 5390 5389 5387 5386 5384 5383 5382 5380 5379 5378 5377 5377 5376 5376 5375 5374 5374 5373 5373 5372 5372 5371 5371 5371 5371 5371 5371 5372 5372 5372
5401 5400 5399 5398 5397 5395 5394 5392 5391 5389 5387 5385 5384 5382 5381 5380 5378 5377 5375 5374 5373 5371 5370 5369 5368 5368 5367 5367 5366 5366 5365 5365 5364 5364 5363 5363 5362 5362 5362 5363 5363 5364 5364 5364
5392 5391 5389 5388 5387 5385 5384 5382 5381 5379 5377 5376 5375 5373 5372 5371 5370 5368 5367 5365 5364 5363 5362 5361 5360 5360 5359 5358 5358 5357 5357 5357 5356 5356 5355 5355 5355 5354 5355 5355 5355 5356 5356 5357
5383 5381 5380 5379 5377 5376 5374 5373 5371 5370 5368 5367 5366 5365 5364 5363 5362 5360 5359 5357 5356 5354 5354 5353 5352 5352 5351 5350 5350 5349 5349 5349 5348 5348 5347 5347 5347 5347 5347 5348 5348 5348 5349 5349
5373 5372 5371 5370 5368 5367 5365 5364 5362 5361 5360 5359 5358 5357 5356 5355 5353 5352 5351 5349 5348 5347 5346 5345 5345 5344 5343 5342 5342 5342 5341 5341 5340 5340 5340 5340 5340 5340 5340 5340 5341 5341 5342 5342
5364 5363 5362 5361 5359 5358 5357 5356 5354 5353 5352 5351 5350 5349 5348 5347 5346 5345 5343 5342 5340 5339 5338 5337 5337 5336 5336 5335 5335 5335 5334 5334 5333 5333 5333 5333 5333 5333 5334 5334 5334 5335 5335 5336
5355 5354 5353 5352 5351 5350 5349 5348 5346 5345 5344 5343 5343 5342 5341 5340 5338 5337 5336 5335 5333 5332 5331 5330 5329 5328 5328 5328 5328 5327 5327 5326 5326 5326 5326 5326 5326 5326 5327 5327 5327 5328 5328 5329
5347 5346 5345 5344 5343 5342 5341 5340 5339 5338 5337 5336 5335 5334 5333 5332 5331 5330 5329 5328 5326 5325 5324 5323 5322 5321 5321 5320 5320 5320 5320 5319 5319 5319 5319 5319 5319 5320 5320 5320 5321 5321 5321 5322
5339 5339 5338 5336 5336 5334 5334 5333 5332 5331 5330 5329 5328 5327 5326 5325 5324 5323 5322 5321 5320 5318 5317 5316 5315 5314 5314 5313 5313 5313 5313 5313 5312 5312 5312 5312 5313 5313 5314 5314 5314 5314 5314 5315
5331 5331 5330 5329 5328 5327 5326 5325 5325 5324 5323 5322 5321 5320 5319 5318 5317 5316 5315 5314 5313 5312 5311 5310 5309 5308 5308 5307 5307 5307 5306 5306 5306 5306 5306 5306 5306 5307 5307 5307 5307 5307 5308 5309